Year,Month,Day,Hour,Minute,Value (Times are PST for temperature in C)
2020,04,13,00,00,7.00
2020,04,13,00,01,7.00
2020,04,13,00,02,6.90
2020,04,13,00,03,6.90
2020,04,13,00,04,6.80
2020,04,13,00,05,6.80
2020,04,13,00,06,6.80
2020,04,13,00,07,6.80
2020,04,13,00,08,6.90
2020,04,13,00,09,6.90
2020,04,13,00,10,6.90
2020,04,13,00,11,6.90
2020,04,13,00,12,6.80
2020,04,13,00,13,6.80
2020,04,13,00,14,6.80
2020,04,13,00,15,6.70
2020,04,13,00,16,6.70
2020,04,13,00,17,6.70
2020,04,13,00,18,6.70
2020,04,13,00,19,6.70
2020,04,13,00,20,6.70
2020,04,13,00,21,6.70
2020,04,13,00,22,6.60
2020,04,13,00,23,6.60
2020,04,13,00,24,6.60
2020,04,13,00,25,6.50
2020,04,13,00,26,6.40
2020,04,13,00,27,6.30
2020,04,13,00,28,6.30
2020,04,13,00,29,6.30
2020,04,13,00,30,6.30
2020,04,13,00,31,6.30
2020,04,13,00,32,6.20
2020,04,13,00,33,6.20
2020,04,13,00,34,6.10
2020,04,13,00,35,6.10
2020,04,13,00,36,6.00
2020,04,13,00,37,5.90
2020,04,13,00,38,5.80
2020,04,13,00,39,5.80
2020,04,13,00,40,5.80
2020,04,13,00,41,5.70
2020,04,13,00,42,5.70
2020,04,13,00,43,5.70
2020,04,13,00,44,5.70
2020,04,13,00,45,5.70
2020,04,13,00,46,5.70
2020,04,13,00,47,5.70
2020,04,13,00,48,5.70
2020,04,13,00,49,5.80
2020,04,13,00,50,5.80
2020,04,13,00,51,5.80
2020,04,13,00,52,5.80
2020,04,13,00,53,5.70
2020,04,13,00,54,5.60
2020,04,13,00,55,5.50
2020,04,13,00,56,5.40
2020,04,13,00,57,5.30
2020,04,13,00,58,5.20
2020,04,13,00,59,5.10
2020,04,13,01,00,5.00
2020,04,13,01,01,4.90
2020,04,13,01,02,4.90
2020,04,13,01,03,4.90
2020,04,13,01,04,4.90
2020,04,13,01,05,4.80
2020,04,13,01,06,4.80
2020,04,13,01,07,4.80
2020,04,13,01,08,4.70
2020,04,13,01,09,4.70
2020,04,13,01,10,4.70
2020,04,13,01,11,4.70
2020,04,13,01,12,4.80
2020,04,13,01,13,4.80
2020,04,13,01,14,4.80
2020,04,13,01,15,4.80
2020,04,13,01,16,4.80
2020,04,13,01,17,4.80
2020,04,13,01,18,4.80
2020,04,13,01,19,4.80
2020,04,13,01,20,4.70
2020,04,13,01,21,4.70
2020,04,13,01,22,4.60
2020,04,13,01,23,4.60
2020,04,13,01,24,4.50
2020,04,13,01,25,4.50
2020,04,13,01,26,4.50
2020,04,13,01,27,4.50
2020,04,13,01,28,4.50
2020,04,13,01,29,4.50
2020,04,13,01,30,4.50
2020,04,13,01,31,4.60
2020,04,13,01,32,4.60
2020,04,13,01,33,4.60
2020,04,13,01,34,4.60
2020,04,13,01,35,4.50
2020,04,13,01,36,4.50
2020,04,13,01,37,4.50
2020,04,13,01,38,4.50
2020,04,13,01,39,4.60
2020,04,13,01,40,4.70
2020,04,13,01,41,4.70
2020,04,13,01,42,4.80
2020,04,13,01,43,4.80
2020,04,13,01,44,4.80
2020,04,13,01,45,4.90
2020,04,13,01,46,4.90
2020,04,13,01,47,5.00
2020,04,13,01,48,5.00
2020,04,13,01,49,5.10
2020,04,13,01,50,5.10
2020,04,13,01,51,5.10
2020,04,13,01,52,5.20
2020,04,13,01,53,5.20
2020,04,13,01,54,5.30
2020,04,13,01,55,5.40
2020,04,13,01,56,5.50
2020,04,13,01,57,5.60
2020,04,13,01,58,5.70
2020,04,13,01,59,5.70
2020,04,13,02,00,5.60
2020,04,13,02,01,5.50
2020,04,13,02,02,5.40
2020,04,13,02,03,5.30
2020,04,13,02,04,5.10
2020,04,13,02,05,4.90
2020,04,13,02,06,4.80
2020,04,13,02,07,4.70
2020,04,13,02,08,4.60
2020,04,13,02,09,4.60
2020,04,13,02,10,4.60
2020,04,13,02,11,4.60
2020,04,13,02,12,4.60
2020,04,13,02,13,4.70
2020,04,13,02,14,4.70
2020,04,13,02,15,4.70
2020,04,13,02,16,4.70
2020,04,13,02,17,4.70
2020,04,13,02,18,4.80
2020,04,13,02,19,4.80
2020,04,13,02,20,4.80
2020,04,13,02,21,4.80
2020,04,13,02,22,4.70
2020,04,13,02,23,4.70
2020,04,13,02,24,4.70
2020,04,13,02,25,4.70
2020,04,13,02,26,4.70
2020,04,13,02,27,4.60
2020,04,13,02,28,4.60
2020,04,13,02,29,4.50
2020,04,13,02,30,4.50
2020,04,13,02,31,4.50
2020,04,13,02,32,4.50
2020,04,13,02,33,4.50
2020,04,13,02,34,4.50
2020,04,13,02,35,4.50
2020,04,13,02,36,4.30
2020,04,13,02,37,4.00
2020,04,13,02,38,4.00
2020,04,13,02,39,4.00
2020,04,13,02,40,4.00
2020,04,13,02,41,3.90
2020,04,13,02,42,3.90
2020,04,13,02,43,3.90
2020,04,13,02,44,3.80
2020,04,13,02,45,3.80
2020,04,13,02,46,3.80
2020,04,13,02,47,3.70
2020,04,13,02,48,3.70
2020,04,13,02,49,3.60
2020,04,13,02,50,3.60
2020,04,13,02,51,3.60
2020,04,13,02,52,3.60
2020,04,13,02,53,3.70
2020,04,13,02,54,3.80
2020,04,13,02,55,3.90
2020,04,13,02,56,3.90
2020,04,13,02,57,3.90
2020,04,13,02,58,3.90
2020,04,13,02,59,3.90
2020,04,13,03,00,3.90
2020,04,13,03,01,3.90
2020,04,13,03,02,4.00
2020,04,13,03,03,4.10
2020,04,13,03,04,4.10
2020,04,13,03,05,4.20
2020,04,13,03,06,4.20
2020,04,13,03,07,4.20
2020,04,13,03,08,4.20
2020,04,13,03,09,4.20
2020,04,13,03,10,4.10
2020,04,13,03,11,4.10
2020,04,13,03,12,4.10
2020,04,13,03,13,4.10
2020,04,13,03,14,4.10
2020,04,13,03,15,4.10
2020,04,13,03,16,4.10
2020,04,13,03,17,4.10
2020,04,13,03,18,4.10
2020,04,13,03,19,4.10
2020,04,13,03,20,4.20
2020,04,13,03,21,4.20
2020,04,13,03,22,4.20
2020,04,13,03,23,4.20
2020,04,13,03,24,4.20
2020,04,13,03,25,4.20
2020,04,13,03,26,4.20
2020,04,13,03,27,4.20
2020,04,13,03,28,4.10
2020,04,13,03,29,4.10
2020,04,13,03,30,4.10
2020,04,13,03,31,4.10
2020,04,13,03,32,4.10
2020,04,13,03,33,4.10
2020,04,13,03,34,4.10
2020,04,13,03,35,4.10
2020,04,13,03,36,4.10
2020,04,13,03,37,4.10
2020,04,13,03,38,4.10
2020,04,13,03,39,4.10
2020,04,13,03,40,4.00
2020,04,13,03,41,4.00
2020,04,13,03,42,4.10
2020,04,13,03,43,4.10
2020,04,13,03,44,4.00
2020,04,13,03,45,4.00
2020,04,13,03,46,4.00
2020,04,13,03,47,4.00
2020,04,13,03,48,4.00
2020,04,13,03,49,4.10
2020,04,13,03,50,4.10
2020,04,13,03,51,4.10
2020,04,13,03,52,4.10
2020,04,13,03,53,4.20
2020,04,13,03,54,4.20
2020,04,13,03,55,4.20
2020,04,13,03,56,4.20
2020,04,13,03,57,4.10
2020,04,13,03,58,4.10
2020,04,13,03,59,4.10
2020,04,13,04,00,4.00
2020,04,13,04,01,4.00
2020,04,13,04,02,4.00
2020,04,13,04,03,4.00
2020,04,13,04,04,3.90
2020,04,13,04,05,3.90
2020,04,13,04,06,3.90
2020,04,13,04,07,3.90
2020,04,13,04,08,3.90
2020,04,13,04,09,3.90
2020,04,13,04,10,4.00
2020,04,13,04,11,4.00
2020,04,13,04,12,4.10
2020,04,13,04,13,4.10
2020,04,13,04,14,4.10
2020,04,13,04,15,4.10
2020,04,13,04,16,4.20
2020,04,13,04,17,4.20
2020,04,13,04,18,4.20
2020,04,13,04,19,4.20
2020,04,13,04,20,4.20
2020,04,13,04,21,4.10
2020,04,13,04,22,4.20
2020,04,13,04,23,4.20
2020,04,13,04,24,4.20
2020,04,13,04,25,4.20
2020,04,13,04,26,4.20
2020,04,13,04,27,4.20
2020,04,13,04,28,4.20
2020,04,13,04,29,4.20
2020,04,13,04,30,4.20
2020,04,13,04,31,4.10
2020,04,13,04,32,4.10
2020,04,13,04,33,4.10
2020,04,13,04,34,4.10
2020,04,13,04,35,4.10
2020,04,13,04,36,4.00
2020,04,13,04,37,4.10
2020,04,13,04,38,4.10
2020,04,13,04,39,4.10
2020,04,13,04,40,4.10
2020,04,13,04,41,4.10
2020,04,13,04,42,4.10
2020,04,13,04,43,4.20
2020,04,13,04,44,4.20
2020,04,13,04,45,4.20
2020,04,13,04,46,4.20
2020,04,13,04,47,4.20
2020,04,13,04,48,4.20
2020,04,13,04,49,4.20
2020,04,13,04,50,4.20
2020,04,13,04,51,4.30
2020,04,13,04,52,4.30
2020,04,13,04,53,4.30
2020,04,13,04,54,4.30
2020,04,13,04,55,4.40
2020,04,13,04,56,4.50
2020,04,13,04,57,4.50
2020,04,13,04,58,4.50
2020,04,13,04,59,4.50
2020,04,13,05,00,4.40
2020,04,13,05,01,4.30
2020,04,13,05,02,4.20
2020,04,13,05,03,4.20
2020,04,13,05,04,4.10
2020,04,13,05,05,4.00
2020,04,13,05,06,4.00
2020,04,13,05,07,3.90
2020,04,13,05,08,3.90
2020,04,13,05,09,3.80
2020,04,13,05,10,3.80
2020,04,13,05,11,3.80
2020,04,13,05,12,3.70
2020,04,13,05,13,3.70
2020,04,13,05,14,3.70
2020,04,13,05,15,3.70
2020,04,13,05,16,3.60
2020,04,13,05,17,3.60
2020,04,13,05,18,3.70
2020,04,13,05,19,3.70
2020,04,13,05,20,3.80
2020,04,13,05,21,3.80
2020,04,13,05,22,3.90
2020,04,13,05,23,3.90
2020,04,13,05,24,3.90
2020,04,13,05,25,3.90
2020,04,13,05,26,3.90
2020,04,13,05,27,3.90
2020,04,13,05,28,3.90
2020,04,13,05,29,3.80
2020,04,13,05,30,3.80
2020,04,13,05,31,3.70
2020,04,13,05,32,3.60
2020,04,13,05,33,3.50
2020,04,13,05,34,3.40
2020,04,13,05,35,3.30
2020,04,13,05,36,3.20
2020,04,13,05,37,3.10
2020,04,13,05,38,3.00
2020,04,13,05,39,2.90
2020,04,13,05,40,2.80
2020,04,13,05,41,2.70
2020,04,13,05,42,2.70
2020,04,13,05,43,2.70
2020,04,13,05,44,2.70
2020,04,13,05,45,2.70
2020,04,13,05,46,2.70
2020,04,13,05,47,2.70
2020,04,13,05,48,2.70
2020,04,13,05,49,2.70
2020,04,13,05,50,2.80
2020,04,13,05,51,2.80
2020,04,13,05,52,2.80
2020,04,13,05,53,2.80
2020,04,13,05,54,2.90
2020,04,13,05,55,2.90
2020,04,13,05,56,3.00
2020,04,13,05,57,3.10
2020,04,13,05,58,3.10
2020,04,13,05,59,3.10
2020,04,13,06,00,3.20
2020,04,13,06,01,3.20
2020,04,13,06,02,3.20
2020,04,13,06,03,3.20
2020,04,13,06,04,3.20
2020,04,13,06,05,3.20
2020,04,13,06,06,3.20
2020,04,13,06,07,3.20
2020,04,13,06,08,3.20
2020,04,13,06,09,3.30
2020,04,13,06,10,3.30
2020,04,13,06,11,3.30
2020,04,13,06,12,3.40
2020,04,13,06,13,3.40
2020,04,13,06,14,3.40
2020,04,13,06,15,3.40
2020,04,13,06,16,3.40
2020,04,13,06,17,3.50
2020,04,13,06,18,3.60
2020,04,13,06,19,3.60
2020,04,13,06,20,3.70
2020,04,13,06,21,3.70
2020,04,13,06,22,3.70
2020,04,13,06,23,3.70
2020,04,13,06,24,3.60
2020,04,13,06,25,3.60
2020,04,13,06,26,3.50
2020,04,13,06,27,3.40
2020,04,13,06,28,3.40
2020,04,13,06,29,3.40
2020,04,13,06,30,3.40
2020,04,13,06,31,3.40
2020,04,13,06,32,3.50
2020,04,13,06,33,3.50
2020,04,13,06,34,3.50
2020,04,13,06,35,3.50
2020,04,13,06,36,3.50
2020,04,13,06,37,3.50
2020,04,13,06,38,3.50
2020,04,13,06,39,3.50
2020,04,13,06,40,3.50
2020,04,13,06,41,3.40
2020,04,13,06,42,3.40
2020,04,13,06,43,3.30
2020,04,13,06,44,3.30
2020,04,13,06,45,3.20
2020,04,13,06,46,3.10
2020,04,13,06,47,3.10
2020,04,13,06,48,3.00
2020,04,13,06,49,2.90
2020,04,13,06,50,2.90
2020,04,13,06,51,2.80
2020,04,13,06,52,2.80
2020,04,13,06,53,2.70
2020,04,13,06,54,2.60
2020,04,13,06,55,2.50
2020,04,13,06,56,2.50
2020,04,13,06,57,2.40
2020,04,13,06,58,2.50
2020,04,13,06,59,2.60
2020,04,13,07,00,2.60
2020,04,13,07,01,2.70
2020,04,13,07,02,2.80
2020,04,13,07,03,2.90
2020,04,13,07,04,3.10
2020,04,13,07,05,3.30
2020,04,13,07,06,3.50
2020,04,13,07,07,3.60
2020,04,13,07,08,3.80
2020,04,13,07,09,4.00
2020,04,13,07,10,4.00
2020,04,13,07,11,4.10
2020,04,13,07,12,4.10
2020,04,13,07,13,4.10
2020,04,13,07,14,4.10
2020,04,13,07,15,4.00
2020,04,13,07,16,4.00
2020,04,13,07,17,3.90
2020,04,13,07,18,3.90
2020,04,13,07,19,3.90
2020,04,13,07,20,3.90
2020,04,13,07,21,3.90
2020,04,13,07,22,3.90
2020,04,13,07,23,3.90
2020,04,13,07,24,4.00
2020,04,13,07,25,4.00
2020,04,13,07,26,4.10
2020,04,13,07,27,4.10
2020,04,13,07,28,4.20
2020,04,13,07,29,4.20
2020,04,13,07,30,4.30
2020,04,13,07,31,4.30
2020,04,13,07,32,4.40
2020,04,13,07,33,4.50
2020,04,13,07,34,4.60
2020,04,13,07,35,4.70
2020,04,13,07,36,4.70
2020,04,13,07,37,4.80
2020,04,13,07,38,4.90
2020,04,13,07,39,4.90
2020,04,13,07,40,5.00
2020,04,13,07,41,5.00
2020,04,13,07,42,5.10
2020,04,13,07,43,5.10
2020,04,13,07,44,5.10
2020,04,13,07,45,5.20
2020,04,13,07,46,5.20
2020,04,13,07,47,5.30
2020,04,13,07,48,5.30
2020,04,13,07,49,5.40
2020,04,13,07,50,5.50
2020,04,13,07,51,5.50
2020,04,13,07,52,5.60
2020,04,13,07,53,5.70
2020,04,13,07,54,5.80
2020,04,13,07,55,6.00
2020,04,13,07,56,6.10
2020,04,13,07,57,6.30
2020,04,13,07,58,6.40
2020,04,13,07,59,6.50
2020,04,13,08,00,6.60
2020,04,13,08,01,6.70
2020,04,13,08,02,6.70
2020,04,13,08,03,6.80
2020,04,13,08,04,6.80
2020,04,13,08,05,6.90
2020,04,13,08,06,6.90
2020,04,13,08,07,7.00
2020,04,13,08,08,7.10
2020,04,13,08,09,7.20
2020,04,13,08,10,7.30
2020,04,13,08,11,7.50
2020,04,13,08,12,7.60
2020,04,13,08,13,7.70
2020,04,13,08,14,7.70
2020,04,13,08,15,7.80
2020,04,13,08,16,7.90
2020,04,13,08,17,8.00
2020,04,13,08,18,8.10
2020,04,13,08,19,8.30
2020,04,13,08,20,8.50
2020,04,13,08,21,8.70
2020,04,13,08,22,8.90
2020,04,13,08,23,9.00
2020,04,13,08,24,9.20
2020,04,13,08,25,9.20
2020,04,13,08,26,9.30
2020,04,13,08,27,9.30
2020,04,13,08,28,9.30
2020,04,13,08,29,9.30
2020,04,13,08,30,9.30
2020,04,13,08,31,9.30
2020,04,13,08,32,9.30
2020,04,13,08,33,9.40
2020,04,13,08,34,9.40
2020,04,13,08,35,9.50
2020,04,13,08,36,9.50
2020,04,13,08,37,9.60
2020,04,13,08,38,9.60
2020,04,13,08,39,9.60
2020,04,13,08,40,9.60
2020,04,13,08,41,9.50
2020,04,13,08,42,9.50
2020,04,13,08,43,9.50
2020,04,13,08,44,9.50
2020,04,13,08,45,9.50
2020,04,13,08,46,9.40
2020,04,13,08,47,9.40
2020,04,13,08,48,9.30
2020,04,13,08,49,9.30
2020,04,13,08,50,9.40
2020,04,13,08,51,9.40
2020,04,13,08,52,9.50
2020,04,13,08,53,9.50
2020,04,13,08,54,9.40
2020,04,13,08,55,9.40
2020,04,13,08,56,9.40
2020,04,13,08,57,9.40
2020,04,13,08,58,9.50
2020,04,13,08,59,9.50
2020,04,13,09,00,9.60
2020,04,13,09,01,9.60
2020,04,13,09,02,9.60
2020,04,13,09,03,9.60
2020,04,13,09,04,9.60
2020,04,13,09,05,9.60
2020,04,13,09,06,9.60
2020,04,13,09,07,9.60
2020,04,13,09,08,9.60
2020,04,13,09,09,9.60
2020,04,13,09,10,9.70
2020,04,13,09,11,9.80
2020,04,13,09,12,9.70
2020,04,13,09,13,9.80
2020,04,13,09,14,9.80
2020,04,13,09,15,9.80
2020,04,13,09,16,9.80
2020,04,13,09,17,9.70
2020,04,13,09,18,9.70
2020,04,13,09,19,9.70
2020,04,13,09,20,9.70
2020,04,13,09,21,9.70
2020,04,13,09,22,9.70
2020,04,13,09,23,9.70
2020,04,13,09,24,9.70
2020,04,13,09,25,9.70
2020,04,13,09,26,9.80
2020,04,13,09,27,9.90
2020,04,13,09,28,9.90
2020,04,13,09,29,9.80
2020,04,13,09,30,9.80
2020,04,13,09,31,9.70
2020,04,13,09,32,9.60
2020,04,13,09,33,9.60
2020,04,13,09,34,9.60
2020,04,13,09,35,9.60
2020,04,13,09,36,9.60
2020,04,13,09,37,9.60
2020,04,13,09,38,9.60
2020,04,13,09,39,9.50
2020,04,13,09,40,9.60
2020,04,13,09,41,9.60
2020,04,13,09,42,9.50
2020,04,13,09,43,9.40
2020,04,13,09,44,9.50
2020,04,13,09,45,9.60
2020,04,13,09,46,9.80
2020,04,13,09,47,9.80
2020,04,13,09,48,9.80
2020,04,13,09,49,9.80
2020,04,13,09,50,9.80
2020,04,13,09,51,9.80
2020,04,13,09,52,9.90
2020,04,13,09,53,9.90
2020,04,13,09,54,9.90
2020,04,13,09,55,9.80
2020,04,13,09,56,9.80
2020,04,13,09,57,9.80
2020,04,13,09,58,9.90
2020,04,13,09,59,9.90
2020,04,13,10,00,10.00
2020,04,13,10,01,10.10
2020,04,13,10,02,10.20
2020,04,13,10,03,10.20
2020,04,13,10,04,10.30
2020,04,13,10,05,10.30
2020,04,13,10,06,10.30
2020,04,13,10,07,10.50
2020,04,13,10,08,10.50
2020,04,13,10,09,10.60
2020,04,13,10,10,10.70
2020,04,13,10,11,10.70
2020,04,13,10,12,10.80
2020,04,13,10,13,10.90
2020,04,13,10,14,10.90
2020,04,13,10,15,10.80
2020,04,13,10,16,10.70
2020,04,13,10,17,10.60
2020,04,13,10,18,10.50
2020,04,13,10,19,10.40
2020,04,13,10,20,10.40
2020,04,13,10,21,10.50
2020,04,13,10,22,10.50
2020,04,13,10,23,10.40
2020,04,13,10,24,10.50
2020,04,13,10,25,10.50
2020,04,13,10,26,10.50
2020,04,13,10,27,10.50
2020,04,13,10,28,10.40
2020,04,13,10,29,10.40
2020,04,13,10,30,10.40
2020,04,13,10,31,10.50
2020,04,13,10,32,10.50
2020,04,13,10,33,10.40
2020,04,13,10,34,10.30
2020,04,13,10,35,10.30
2020,04,13,10,36,10.30
2020,04,13,10,37,10.30
2020,04,13,10,38,10.20
2020,04,13,10,39,10.30
2020,04,13,10,40,10.40
2020,04,13,10,41,10.50
2020,04,13,10,42,10.50
2020,04,13,10,43,10.40
2020,04,13,10,44,10.40
2020,04,13,10,45,10.30
2020,04,13,10,46,10.30
2020,04,13,10,47,10.50
2020,04,13,10,48,10.60
2020,04,13,10,49,10.70
2020,04,13,10,50,10.70
2020,04,13,10,51,10.70
2020,04,13,10,52,10.80
2020,04,13,10,53,10.80
2020,04,13,10,54,10.70
2020,04,13,10,55,10.60
2020,04,13,10,56,10.60
2020,04,13,10,57,10.70
2020,04,13,10,58,10.70
2020,04,13,10,59,10.90
2020,04,13,11,00,11.00
2020,04,13,11,01,11.10
2020,04,13,11,02,11.00
2020,04,13,11,03,11.10
2020,04,13,11,04,11.10
2020,04,13,11,05,11.20
2020,04,13,11,06,11.20
2020,04,13,11,07,11.20
2020,04,13,11,08,11.30
2020,04,13,11,09,11.40
2020,04,13,11,10,11.40
2020,04,13,11,11,11.40
2020,04,13,11,12,11.20
2020,04,13,11,13,11.20
2020,04,13,11,14,11.30
2020,04,13,11,15,11.40
2020,04,13,11,16,11.50
2020,04,13,11,17,11.60
2020,04,13,11,18,11.50
2020,04,13,11,19,11.30
2020,04,13,11,20,11.20
2020,04,13,11,21,11.10
2020,04,13,11,22,11.10
2020,04,13,11,23,11.20
2020,04,13,11,24,11.30
2020,04,13,11,25,11.30
2020,04,13,11,26,11.30
2020,04,13,11,27,11.30
2020,04,13,11,28,11.40
2020,04,13,11,29,11.50
2020,04,13,11,30,11.50
2020,04,13,11,31,11.50
2020,04,13,11,32,11.50
2020,04,13,11,33,11.40
2020,04,13,11,34,11.40
2020,04,13,11,35,11.40
2020,04,13,11,36,11.40
2020,04,13,11,37,11.60
2020,04,13,11,38,11.70
2020,04,13,11,39,11.80
2020,04,13,11,40,11.70
2020,04,13,11,41,11.60
2020,04,13,11,42,11.60
2020,04,13,11,43,11.70
2020,04,13,11,44,11.70
2020,04,13,11,45,11.70
2020,04,13,11,46,11.80
2020,04,13,11,47,11.90
2020,04,13,11,48,11.90
2020,04,13,11,49,11.90
2020,04,13,11,50,11.90
2020,04,13,11,51,11.90
2020,04,13,11,52,12.00
2020,04,13,11,53,12.00
2020,04,13,11,54,12.00
2020,04,13,11,55,12.10
2020,04,13,11,56,12.20
2020,04,13,11,57,12.20
2020,04,13,11,58,12.20
2020,04,13,11,59,12.20
2020,04,13,12,00,12.20
2020,04,13,12,01,12.20
2020,04,13,12,02,12.30
2020,04,13,12,03,12.30
2020,04,13,12,04,12.30
2020,04,13,12,05,12.30
2020,04,13,12,06,12.30
2020,04,13,12,07,12.30
2020,04,13,12,08,12.20
2020,04,13,12,09,12.10
2020,04,13,12,10,12.10
2020,04,13,12,11,12.10
2020,04,13,12,12,12.00
2020,04,13,12,13,11.80
2020,04,13,12,14,11.90
2020,04,13,12,15,12.00
2020,04,13,12,16,12.00
2020,04,13,12,17,12.10
2020,04,13,12,18,12.20
2020,04,13,12,19,12.30
2020,04,13,12,20,12.30
2020,04,13,12,21,12.40
2020,04,13,12,22,12.40
2020,04,13,12,23,12.40
2020,04,13,12,24,12.40
2020,04,13,12,25,12.40
2020,04,13,12,26,12.40
2020,04,13,12,27,12.40
2020,04,13,12,28,12.30
2020,04,13,12,29,12.30
2020,04,13,12,30,12.50
2020,04,13,12,31,12.60
2020,04,13,12,32,12.50
2020,04,13,12,33,12.50
2020,04,13,12,34,12.50
2020,04,13,12,35,12.40
2020,04,13,12,36,12.40
2020,04,13,12,37,12.50
2020,04,13,12,38,12.60
2020,04,13,12,39,12.60
2020,04,13,12,40,12.50
2020,04,13,12,41,12.60
2020,04,13,12,42,12.60
2020,04,13,12,43,12.60
2020,04,13,12,44,12.70
2020,04,13,12,45,12.70
2020,04,13,12,46,12.70
2020,04,13,12,47,12.70
2020,04,13,12,48,12.70
2020,04,13,12,49,12.70
2020,04,13,12,50,12.80
2020,04,13,12,51,12.90
2020,04,13,12,52,12.90
2020,04,13,12,53,12.90
2020,04,13,12,54,13.00
2020,04,13,12,55,13.10
2020,04,13,12,56,12.90
2020,04,13,12,57,12.80
2020,04,13,12,58,12.80
2020,04,13,12,59,12.90
2020,04,13,13,00,12.80
2020,04,13,13,01,12.80
2020,04,13,13,02,12.90
2020,04,13,13,03,13.10
2020,04,13,13,04,13.20
2020,04,13,13,05,13.10
2020,04,13,13,06,13.00
2020,04,13,13,07,13.00
2020,04,13,13,08,13.00
2020,04,13,13,09,13.00
2020,04,13,13,10,12.90
2020,04,13,13,11,12.80
2020,04,13,13,12,13.00
2020,04,13,13,13,13.20
2020,04,13,13,14,13.30
2020,04,13,13,15,13.20
2020,04,13,13,16,13.20
2020,04,13,13,17,13.30
2020,04,13,13,18,13.30
2020,04,13,13,19,13.40
2020,04,13,13,20,13.60
2020,04,13,13,21,13.60
2020,04,13,13,22,13.50
2020,04,13,13,23,13.40
2020,04,13,13,24,13.30
2020,04,13,13,25,13.30
2020,04,13,13,26,13.30
2020,04,13,13,27,13.20
2020,04,13,13,28,13.20
2020,04,13,13,29,13.30
2020,04,13,13,30,13.20
2020,04,13,13,31,13.20
2020,04,13,13,32,13.10
2020,04,13,13,33,13.20
2020,04,13,13,34,13.20
2020,04,13,13,35,13.30
2020,04,13,13,36,13.40
2020,04,13,13,37,13.40
2020,04,13,13,38,13.50
2020,04,13,13,39,13.60
2020,04,13,13,40,13.50
2020,04,13,13,41,13.60
2020,04,13,13,42,13.60
2020,04,13,13,43,13.60
2020,04,13,13,44,13.60
2020,04,13,13,45,13.60
2020,04,13,13,46,13.60
2020,04,13,13,47,13.50
2020,04,13,13,48,13.40
2020,04,13,13,49,13.40
2020,04,13,13,50,13.40
2020,04,13,13,51,13.70
2020,04,13,13,52,13.80
2020,04,13,13,53,13.80
2020,04,13,13,54,13.80
2020,04,13,13,55,13.80
2020,04,13,13,56,13.70
2020,04,13,13,57,13.80
2020,04,13,13,58,13.80
2020,04,13,13,59,13.90
2020,04,13,14,00,13.90
2020,04,13,14,01,13.90
2020,04,13,14,02,13.90
2020,04,13,14,03,13.90
2020,04,13,14,04,13.80
2020,04,13,14,05,13.70
2020,04,13,14,06,13.70
2020,04,13,14,07,13.70
2020,04,13,14,08,13.80
2020,04,13,14,09,13.80
2020,04,13,14,10,13.80
2020,04,13,14,11,13.80
2020,04,13,14,12,13.80
2020,04,13,14,13,13.80
2020,04,13,14,14,13.80
2020,04,13,14,15,13.80
2020,04,13,14,16,13.80
2020,04,13,14,17,13.90
2020,04,13,14,18,14.00
2020,04,13,14,19,14.10
2020,04,13,14,20,14.10
2020,04,13,14,21,14.20
2020,04,13,14,22,14.30
2020,04,13,14,23,14.30
2020,04,13,14,24,14.20
2020,04,13,14,25,14.20
2020,04,13,14,26,14.10
2020,04,13,14,27,14.20
2020,04,13,14,28,14.30
2020,04,13,14,29,14.30
2020,04,13,14,30,14.30
2020,04,13,14,31,14.20
2020,04,13,14,32,14.20
2020,04,13,14,33,14.20
2020,04,13,14,34,14.30
2020,04,13,14,35,14.50
2020,04,13,14,36,14.70
2020,04,13,14,37,14.70
2020,04,13,14,38,14.60
2020,04,13,14,39,14.50
2020,04,13,14,40,14.40
2020,04,13,14,41,14.40
2020,04,13,14,42,14.40
2020,04,13,14,43,14.50
2020,04,13,14,44,14.70
2020,04,13,14,45,14.70
2020,04,13,14,46,14.60
2020,04,13,14,47,14.60
2020,04,13,14,48,14.50
2020,04,13,14,49,14.40
2020,04,13,14,50,14.30
2020,04,13,14,51,14.30
2020,04,13,14,52,14.40
2020,04,13,14,53,14.50
2020,04,13,14,54,14.50
2020,04,13,14,55,14.60
2020,04,13,14,56,14.70
2020,04,13,14,57,14.70
2020,04,13,14,58,14.60
2020,04,13,14,59,14.50
2020,04,13,15,00,14.50
2020,04,13,15,01,14.50
2020,04,13,15,02,14.70
2020,04,13,15,03,14.80
2020,04,13,15,04,14.80
2020,04,13,15,05,14.90
2020,04,13,15,06,15.00
2020,04,13,15,07,15.00
2020,04,13,15,08,14.90
2020,04,13,15,09,14.90
2020,04,13,15,10,14.90
2020,04,13,15,11,14.90
2020,04,13,15,12,15.00
2020,04,13,15,13,15.00
2020,04,13,15,14,15.00
2020,04,13,15,15,15.00
2020,04,13,15,16,15.00
2020,04,13,15,17,15.00
2020,04,13,15,18,15.10
2020,04,13,15,19,15.30
2020,04,13,15,20,15.40
2020,04,13,15,21,15.40
2020,04,13,15,22,15.40
2020,04,13,15,23,15.30
2020,04,13,15,24,15.20
2020,04,13,15,25,15.10
2020,04,13,15,26,15.10
2020,04,13,15,27,15.20
2020,04,13,15,28,15.10
2020,04,13,15,29,15.00
2020,04,13,15,30,15.00
2020,04,13,15,31,15.00
2020,04,13,15,32,15.00
2020,04,13,15,33,15.00
2020,04,13,15,34,15.00
2020,04,13,15,35,15.00
2020,04,13,15,36,15.00
2020,04,13,15,37,15.00
2020,04,13,15,38,15.00
2020,04,13,15,39,15.00
2020,04,13,15,40,15.00
2020,04,13,15,41,15.00
2020,04,13,15,42,15.00
2020,04,13,15,43,15.10
2020,04,13,15,44,15.30
2020,04,13,15,45,15.30
2020,04,13,15,46,15.20
2020,04,13,15,47,15.00
2020,04,13,15,48,15.00
2020,04,13,15,49,15.00
2020,04,13,15,50,15.00
2020,04,13,15,51,15.00
2020,04,13,15,52,15.00
2020,04,13,15,53,15.00
2020,04,13,15,54,15.00
2020,04,13,15,55,15.00
2020,04,13,15,56,15.00
2020,04,13,15,57,15.00
2020,04,13,15,58,15.00
2020,04,13,15,59,15.00
2020,04,13,16,00,15.10
2020,04,13,16,01,15.20
2020,04,13,16,02,15.30
2020,04,13,16,03,15.30
2020,04,13,16,04,15.30
2020,04,13,16,05,15.40
2020,04,13,16,06,15.40
2020,04,13,16,07,15.40
2020,04,13,16,08,15.40
2020,04,13,16,09,15.30
2020,04,13,16,10,15.40
2020,04,13,16,11,15.40
2020,04,13,16,12,15.40
2020,04,13,16,13,15.40
2020,04,13,16,14,15.40
2020,04,13,16,15,15.40
2020,04,13,16,16,15.50
2020,04,13,16,17,15.40
2020,04,13,16,18,15.30
2020,04,13,16,19,15.30
2020,04,13,16,20,15.20
2020,04,13,16,21,15.20
2020,04,13,16,22,15.20
2020,04,13,16,23,15.10
2020,04,13,16,24,15.00
2020,04,13,16,25,15.00
2020,04,13,16,26,15.00
2020,04,13,16,27,15.00
2020,04,13,16,28,15.00
2020,04,13,16,29,15.00
2020,04,13,16,30,15.00
2020,04,13,16,31,14.90
2020,04,13,16,32,14.90
2020,04,13,16,33,15.00
2020,04,13,16,34,15.00
2020,04,13,16,35,15.00
2020,04,13,16,36,15.00
2020,04,13,16,37,15.00
2020,04,13,16,38,15.10
2020,04,13,16,39,15.10
2020,04,13,16,40,15.00
2020,04,13,16,41,15.00
2020,04,13,16,42,15.20
2020,04,13,16,43,15.20
2020,04,13,16,44,15.10
2020,04,13,16,45,15.10
2020,04,13,16,46,15.00
2020,04,13,16,47,15.00
2020,04,13,16,48,15.00
2020,04,13,16,49,15.00
2020,04,13,16,50,15.00
2020,04,13,16,51,15.00
2020,04,13,16,52,15.00
2020,04,13,16,53,15.10
2020,04,13,16,54,15.10
2020,04,13,16,55,15.20
2020,04,13,16,56,15.20
2020,04,13,16,57,15.20
2020,04,13,16,58,15.10
2020,04,13,16,59,15.00
2020,04,13,17,00,15.00
2020,04,13,17,01,15.00
2020,04,13,17,02,15.00
2020,04,13,17,03,15.00
2020,04,13,17,04,15.00
2020,04,13,17,05,15.00
2020,04,13,17,06,15.00
2020,04,13,17,07,14.90
2020,04,13,17,08,14.80
2020,04,13,17,09,14.70
2020,04,13,17,10,14.70
2020,04,13,17,11,14.70
2020,04,13,17,12,14.70
2020,04,13,17,13,14.80
2020,04,13,17,14,14.80
2020,04,13,17,15,14.90
2020,04,13,17,16,14.90
2020,04,13,17,17,14.90
2020,04,13,17,18,15.00
2020,04,13,17,19,15.00
2020,04,13,17,20,15.00
2020,04,13,17,21,15.00
2020,04,13,17,22,15.00
2020,04,13,17,23,15.00
2020,04,13,17,24,15.00
2020,04,13,17,25,15.00
2020,04,13,17,26,15.00
2020,04,13,17,27,15.00
2020,04,13,17,28,15.00
2020,04,13,17,29,15.00
2020,04,13,17,30,15.00
2020,04,13,17,31,14.80
2020,04,13,17,32,14.80
2020,04,13,17,33,14.80
2020,04,13,17,34,14.70
2020,04,13,17,35,14.70
2020,04,13,17,36,14.70
2020,04,13,17,37,14.60
2020,04,13,17,38,14.60
2020,04,13,17,39,14.60
2020,04,13,17,40,14.50
2020,04,13,17,41,14.50
2020,04,13,17,42,14.40
2020,04,13,17,43,14.40
2020,04,13,17,44,14.30
2020,04,13,17,45,14.30